EW9081 Weather Reports


Display with metric or nautical units.
time (UTC)temp
F
wind
direction
speed
MPH
gust
MPH
rain 1hr
in
rain 24hr
in
rain mn
in
humidity
%
barometer
mb
20260904151611 54 331 1.0 4.0 0.00 0.46 0.11 95 1011.5
20260904151109 54 22 1.0 4.0 0.00 0.46 0.11 95 1011.5
20260904150608 54 67 0.0 3.0 0.00 0.47 0.11 95 1011.5
20260904150108 54 346 0.0 3.0 0.00 0.47 0.11 95 1011.4
20260904145609 54 333 1.0 4.0 0.00 0.48 0.11 95 1011.4
20260904145107 54 42 1.0 4.0 0.00 0.51 0.11 95 1011.3
20260904144609 54 26 1.0 3.0 0.00 0.52 0.11 95 1011.3
20260904144108 53 172 0.0 3.0 0.00 0.54 0.11 95 1011.2
20260904143609 53 69 0.0 3.0 0.00 0.54 0.11 95 1011.2
20260904143108 53 61 1.0 3.0 0.00 0.54 0.11 95 1011.2
20260904142608 53 16 1.0 3.0 0.00 0.54 0.11 95 1011.1
20260904142109 53 28 0.0 3.0 0.00 0.55 0.11 95 1011.0
20260904141608 53 103 1.0 3.0 0.00 0.57 0.11 95 1011.0
20260904141108 53 350 1.0 3.0 0.00 0.58 0.11 95 1010.8
20260904140607 53 13 0.0 3.0 0.00 0.59 0.11 95 1010.7
20260904140109 53 355 0.0 2.0 0.00 0.59 0.11 95 1010.7
20260904135609 53 13 0.0 2.0 0.00 0.59 0.11 95 1010.7
20260904135108 53 12 0.0 3.0 0.00 0.60 0.11 95 1010.7
20260904134607 53 5 0.0 3.0 0.01 0.62 0.11 95 1010.7
20260904134108 53 5 0.0 2.0 0.01 0.62 0.11 95 1010.7
20260904133608 53 25 1.0 3.0 0.01 0.63 0.11 95 1010.5
20260904133109 53 20 1.0 3.0 0.01 0.63 0.11 95 1010.4
20260904132613 53 26 0.0 4.0 0.01 0.63 0.11 95 1010.4
20260904132609 53 5 1.0 3.0 0.01 0.63 0.11 95 1010.4
20260904131607 53 34 1.0 4.0 0.01 0.63 0.11 95 1010.3
20260904131109 53 0 0.0 3.0 0.01 0.63 0.11 95 1010.3
20260904130607 53 0 1.0 4.0 0.01 0.63 0.11 95 1010.3
20260904130105 53 24 1.0 4.0 0.01 0.63 0.11 95 1010.3
20260904125611 53 173 0.0 2.0 0.01 0.63 0.10 95 1010.1
20260904125605 53 36 1.0 4.0 0.02 0.63 0.11 95 1010.2
20260904125105 53 16 1.0 4.0 0.02 0.63 0.11 95 1010.2
20260904124604 53 178 0.0 2.0 0.01 0.63 0.10 95 1010.2
20260904123603 53 18 0.0 2.0 0.01 0.63 0.10 95 1010.1
20260904123101 53 34 0.0 2.0 0.01 0.63 0.10 95 1010.1
20260904122601 53 28 0.0 2.0 0.01 0.63 0.10 95 1010.1
20260904122103 53 28 0.0 2.0 0.01 0.64 0.10 95 1010.1
20260904121601 53 23 0.0 2.0 0.01 0.64 0.10 95 1010.1
20260904121107 53 22 1.0 3.0 0.01 0.65 0.10 95 1010.0
20260904121101 53 19 0.0 3.0 0.01 0.65 0.10 95 1010.0
20260904115602 53 21 0.0 2.0 0.00 0.69 0.09 95 1010.0
20260904115109 53 13 1.0 2.0 0.00 0.75 0.09 95 1009.8
20260904115101 54 21 0.0 2.0 0.00 0.72 0.09 95 1009.9
20260904114601 53 23 0.0 2.0 0.00 0.74 0.09 95 1010.0
20260904114102 53 17 0.0 2.0 0.00 0.74 0.09 95 1009.9
20260904113101 53 24 0.0 2.0 0.00 0.75 0.09 95 1009.8
20260904112601 53 20 0.0 2.0 0.00 0.75 0.09 95 1009.7
20260904112103 53 349 1.0 2.0 0.00 0.75 0.09 95 1009.6
20260904111603 53 15 0.0 3.0 0.00 0.76 0.09 95 1009.5
20260904111559 53 14 0.0 2.0 0.00 0.76 0.09 95 1009.6
20260904111057 53 17 0.0 3.0 0.00 0.76 0.09 95 1009.5
20260904110059 53 0 0.0 2.0 0.00 0.76 0.09 95 1009.5
20260904105559 54 355 0.0 2.0 0.01 0.76 0.09 95 1009.5
20260904105057 54 99 0.0 4.0 0.01 0.76 0.09 95 1009.5
20260904104600 54 22 0.0 4.0 0.01 0.76 0.09 95 1009.5
20260904104057 54 12 0.0 2.0 0.01 0.76 0.09 95 1009.5
20260904103602 54 106 0.0 2.0 0.01 0.76 0.09 95 1009.4
20260904103557 54 5 0.0 2.0 0.01 0.76 0.09 95 1009.5
20260904103210 54 107 0.0 2.0 0.01 0.76 0.09 95 1009.4
20260904102059 54 109 0.0 2.0 0.01 0.76 0.09 95 1009.4
20260904101603 54 57 0.0 2.0 0.01 0.76 0.09 95 1009.4
20260904101559 54 115 0.0 2.0 0.01 0.76 0.09 95 1009.4
20260904100559 54 43 0.0 2.0 0.02 0.76 0.09 95 1009.3
20260904100555 54 53 0.0 2.0 0.01 0.76 0.09 95 1009.4
20260904095556 54 43 0.0 3.0 0.02 0.75 0.08 95 1009.3
20260904095056 54 44 0.0 3.0 0.02 0.75 0.08 94 1009.3
20260904094555 54 5 0.0 2.0 0.03 0.75 0.08 94 1009.4
20260904094054 54 5 0.0 0.0 0.04 0.75 0.08 95 1009.4
20260904093556 54 5 0.0 0.0 0.05 0.75 0.08 94 1009.4
20260904093054 54 9 0.0 0.0 0.06 0.75 0.08 94 1009.3
20260904092554 54 5 0.0 2.0 0.07 0.75 0.08 94 1009.3
20260904092052 54 5 0.0 2.0 0.08 0.75 0.08 94 1009.3
20260904091553 54 5 0.0 2.0 0.08 0.75 0.08 94 1009.3
20260904091054 54 5 0.0 2.0 0.08 0.75 0.08 94 1009.3
20260904090558 54 5 0.0 2.0 0.07 0.74 0.07 94 1009.2
20260904090553 54 0 0.0 2.0 0.08 0.75 0.08 95 1009.2
20260904085559 54 9 0.0 2.0 0.05 0.72 0.05 94 1009.2
20260904085554 54 9 0.0 2.0 0.06 0.73 0.06 94 1009.2
20260904085055 54 5 0.0 2.0 0.06 0.73 0.06 94 1009.2
20260904084707 54 5 0.0 2.0 0.03 0.70 0.03 94 1009.3
20260904084054 54 5 0.0 2.0 0.04 0.71 0.04 94 1009.3
20260904083053 54 5 0.0 2.0 0.02 0.70 0.02 94 1009.4
20260904082553 54 5 0.0 2.0 0.01 0.69 0.01 94 1009.3
20260904082051 54 355 0.0 2.0 0.00 0.68 0.01 94 1009.4
20260904081556 53 32 0.0 3.0 0.00 0.68 0.00 94 1009.3
20260904081551 53 347 0.0 3.0 0.00 0.68 0.00 94 1009.3
20260904080552 53 180 0.0 2.0 0.00 0.68 0.00 94 1009.4
20260904080050 53 180 0.0 2.0 0.00 0.68 0.00 94 1009.4
20260904075555 54 180 0.0 2.0 0.00 0.68 0.00 94 1009.4
20260904075551 54 180 0.0 2.0 0.00 0.68 0.00 94 1009.4
20260904074549 54 180 0.0 2.0 0.00 0.68 0.00 94 1009.3
20260904074048 54 180 0.0 2.0 0.00 0.68 0.00 94 1009.3
20260904073549 54 180 0.0 2.0 0.00 0.68 0.00 94 1009.3
20260904073049 54 60 0.0 2.0 0.00 0.68 0.00 94 1009.2
20260904072549 54 60 0.0 2.0 0.00 0.68 0.00 94 1009.2
20260904072050 54 60 0.0 2.0 0.00 0.68 0.00 94 1009.2
20260904071549 54 60 0.0 2.0 0.00 0.68 0.00 94 1009.3
20260904071048 54 9 0.0 2.0 0.00 0.68 0.00 94 1009.2
20260904070552 54 5 0.0 2.0 0.00 0.68 0.00 94 1009.1
20260904070548 54 41 0.0 2.0 0.00 0.68 0.00 94 1009.1
20260904065547 54 41 0.0 3.0 0.00 0.68 0.68 94 1009.2
20260904065048 54 37 0.0 3.0 0.00 0.68 0.68 94 1009.1
20260904064547 54 37 0.0 3.0 0.00 0.68 0.68 94 1009.1
20260904064047 54 37 0.0 3.0 0.00 0.68 0.68 94 1009.1
20260904063548 54 136 0.0 2.0 0.00 0.68 0.68 94 1009.2
20260904063047 54 136 0.0 2.0 0.00 0.68 0.68 94 1009.2
20260904062547 54 136 0.0 2.0 0.00 0.68 0.68 94 1009.2
20260904062051 54 136 0.0 2.0 0.00 0.68 0.68 94 1009.2
20260904062045 54 136 0.0 2.0 0.00 0.68 0.68 94 1009.2
20260904061045 54 136 0.0 2.0 0.00 0.68 0.68 94 1009.2
20260904060545 54 137 0.0 2.0 0.00 0.68 0.68 94 1009.2
20260904060045 54 137 0.0 2.0 0.00 0.68 0.68 94 1009.3
20260904055545 54 138 0.0 0.0 0.00 0.68 0.68 94 1009.3
20260904055045 54 138 0.0 0.0 0.00 0.68 0.68 94 1009.3
20260904054544 54 138 0.0 0.0 0.00 0.68 0.68 94 1009.3
20260904054044 54 138 0.0 0.0 0.01 0.68 0.68 93 1009.3
20260904053549 54 138 0.0 2.0 0.02 0.68 0.68 93 1009.3
20260904053543 54 138 0.0 2.0 0.01 0.68 0.68 93 1009.3
20260904052543 54 138 0.0 2.0 0.02 0.68 0.68 94 1009.3
20260904052043 54 138 0.0 2.0 0.03 0.68 0.68 94 1009.3
20260904051543 54 91 0.0 2.0 0.03 0.68 0.68 94 1009.3
20260904051043 54 91 0.0 2.0 0.04 0.68 0.68 94 1009.4
20260904050544 54 90 0.0 2.0 0.04 0.68 0.68 94 1009.4
20260904050040 54 90 0.0 2.0 0.04 0.68 0.68 94 1009.4
20260904045540 54 90 0.0 2.0 0.04 0.68 0.68 94 1009.3
20260904045039 54 90 0.0 2.0 0.05 0.68 0.68 94 1009.3
20260904044539 54 92 0.0 2.0 0.05 0.68 0.68 93 1009.3
20260904044044 55 92 0.0 2.0 0.04 0.67 0.67 93 1009.3
20260904044039 55 92 0.0 2.0 0.04 0.67 0.67 93 1009.3
20260904043040 55 92 0.0 4.0 0.03 0.66 0.66 93 1009.3
20260904042539 55 80 0.0 4.0 0.04 0.66 0.66 93 1009.3
20260904042039 55 166 0.0 5.0 0.03 0.65 0.65 93 1009.2
20260904041540 55 165 0.0 5.0 0.04 0.65 0.65 93 1009.2
20260904041044 55 165 0.0 5.0 0.03 0.64 0.64 93 1009.2
20260904041039 55 165 0.0 5.0 0.03 0.64 0.64 93 1009.2
20260904040039 55 140 0.0 5.0 0.03 0.64 0.64 93 1009.2
20260904035537 55 183 1.0 3.0 0.03 0.64 0.64 93 1009.2
20260904035038 55 176 1.0 3.0 0.02 0.63 0.63 93 1009.1
20260904034537 55 172 1.0 4.0 0.02 0.63 0.63 93 1009.1
20260904034037 55 167 1.0 6.0 0.02 0.63 0.63 93 1009.0
20260904033537 55 173 0.0 6.0 0.02 0.63 0.63 93 1009.0
20260904033039 55 173 0.0 3.0 0.02 0.63 0.63 93 1008.9
20260904032537 55 165 0.0 3.0 0.01 0.62 0.62 93 1008.9
20260904032037 55 175 0.0 3.0 0.01 0.62 0.62 92 1008.8
20260904031537 55 174 1.0 3.0 0.00 0.61 0.61 92 1008.8
20260904031040 55 171 0.0 4.0 0.00 0.61 0.61 92 1008.8
20260904031035 55 178 1.0 4.0 0.00 0.61 0.61 92 1008.8
20260904030035 55 175 0.0 3.0 0.00 0.61 0.61 92 1008.8
20260904025535 55 178 0.0 2.0 0.00 0.61 0.61 92 1008.8
20260904025034 55 159 0.0 3.0 0.00 0.61 0.61 92 1008.8
20260904024532 55 158 0.0 4.0 0.01 0.61 0.61 92 1008.8
20260904024033 55 183 0.0 4.0 0.01 0.61 0.61 92 1008.8
20260904023533 55 158 0.0 2.0 0.01 0.61 0.61 92 1008.8
20260904023036 56 161 0.0 4.0 0.02 0.61 0.61 92 1008.8
20260904023032 55 138 0.0 4.0 0.01 0.61 0.61 92 1008.8
20260904022646 56 161 1.0 4.0 0.04 0.61 0.61 92 1008.8
20260904021530 56 185 1.0 4.0 0.05 0.61 0.61 92 1008.8
20260904021030 56 166 0.0 4.0 0.06 0.61 0.61 92 1008.7
20260904020528 56 144 1.0 4.0 0.06 0.61 0.61 91 1008.7
20260904020027 56 175 1.0 4.0 0.06 0.61 0.61 91 1008.7
20260904015525 56 163 1.0 5.0 0.06 0.61 0.61 91 1008.7
20260904015030 56 179 1.0 5.0 0.05 0.60 0.61 92 1008.8
20260904015025 56 149 1.0 5.0 0.06 0.61 0.61 92 1008.7
20260904014025 56 159 1.0 4.0 0.05 0.60 0.60 91 1008.8
20260904013524 56 180 1.0 4.0 0.05 0.60 0.60 91 1008.6
20260904013022 56 166 1.0 5.0 0.05 0.60 0.60 90 1008.7
20260904012524 57 121 2.0 5.0 0.04 0.59 0.59 90 1008.6
20260904012022 57 182 1.0 5.0 0.02 0.57 0.57 89 1008.6
20260904011522 57 132 2.0 8.0 0.01 0.56 0.56 89 1008.6
20260904011022 58 180 2.0 8.0 0.01 0.55 0.55 89 1008.6
20260904010528 58 157 1.0 4.0 0.03 0.55 0.55 90 1008.5
20260904010522 58 182 1.0 8.0 0.01 0.55 0.55 89 1008.5
20260904010022 58 169 1.0 8.0 0.02 0.55 0.55 89 1008.5
20260904005029 58 129 0.0 2.0 0.05 0.55 0.55 90 1008.6
20260904005022 58 178 1.0 4.0 0.03 0.55 0.55 90 1008.6
20260904004523 58 169 0.0 3.0 0.04 0.55 0.55 90 1008.6
20260904004023 58 189 0.0 3.0 0.04 0.55 0.55 90 1008.6
20260904003028 58 128 0.0 2.0 0.05 0.55 0.55 91 1008.7
20260904003023 58 128 0.0 2.0 0.05 0.55 0.55 90 1008.6
20260904002022 57 128 0.0 2.0 0.05 0.55 0.55 90 1008.8
20260904001523 57 127 0.0 2.0 0.05 0.55 0.55 89 1008.7
20260904001024 57 127 0.0 2.0 0.04 0.54 0.55 89 1008.8
20260904000523 57 127 0.0 2.0 0.04 0.54 0.54 89 1008.8
20260904000023 57 127 0.0 2.0 0.03 0.53 0.53 88 1008.8
20260903235522 58 127 0.0 2.0 0.02 0.52 0.52 89 1008.9
20260903235022 58 117 0.0 2.0 0.02 0.52 0.52 88 1008.9
20260903234523 58 172 0.0 3.0 0.01 0.51 0.51 88 1008.9
20260903234022 58 96 1.0 3.0 0.01 0.51 0.51 87 1008.9
20260903233523 58 170 0.0 2.0 0.00 0.50 0.50 87 1008.9
20260903233022 58 169 1.0 3.0 0.00 0.50 0.50 87 1008.9
20260903232524 58 168 1.0 4.0 0.00 0.50 0.50 86 1008.9
20260903232023 59 142 1.0 4.0 0.00 0.50 0.50 83 1008.8
20260903231522 59 146 1.0 5.0 0.00 0.50 0.50 83 1008.9
20260903231023 60 174 1.0 5.0 0.00 0.50 0.50 84 1008.8
20260903230522 60 167 1.0 5.0 0.00 0.50 0.50 85 1008.8
20260903230028 60 188 1.0 6.0 0.00 0.50 0.50 86 1008.7
20260903230022 60 179 1.0 5.0 0.00 0.50 0.50 85 1008.7
20260903225023 60 166 2.0 6.0 0.00 0.51 0.50 86 1008.8
20260903224522 60 182 2.0 6.0 0.00 0.51 0.50 89 1008.8
20260903224022 59 152 2.0 8.0 0.00 0.51 0.50 89 1008.9
20260903223520 58 186 2.0 8.0 0.00 0.51 0.50 90 1009.0
20260903223020 58 178 1.0 4.0 0.00 0.51 0.50 90 1009.0
20260903222521 57 155 1.0 4.0 0.00 0.51 0.50 90 1009.1
20260903222022 57 153 1.0 3.0 0.00 0.51 0.50 89 1009.2
20260903221519 57 108 1.0 3.0 0.00 0.51 0.50 89 1009.2
20260903221018 57 134 1.0 4.0 0.00 0.51 0.50 89 1009.2
20260903220518 57 159 0.0 4.0 0.00 0.51 0.50 89 1009.2
20260903220018 56 63 0.0 4.0 0.00 0.51 0.50 89 1009.2
20260903215519 56 61 1.0 4.0 0.00 0.51 0.50 88 1009.2
20260903215022 56 202 0.0 4.0 0.00 0.51 0.50 89 1009.4
20260903215018 56 94 1.0 3.0 0.00 0.51 0.50 89 1009.2
20260903214516 56 144 1.0 4.0 0.00 0.51 0.50 89 1009.3
20260903213518 56 170 0.0 2.0 0.00 0.51 0.50 89 1009.3
20260903213514 56 152 0.0 2.0 0.00 0.51 0.50 88 1009.3
20260903212514 56 173 0.0 2.0 0.00 0.51 0.50 88 1009.4
20260903212014 56 164 0.0 3.0 0.00 0.51 0.50 87 1009.3
20260903211517 56 178 0.0 3.0 0.01 0.51 0.50 89 1009.3
20260903211512 56 171 0.0 3.0 0.01 0.51 0.50 88 1009.1
20260903210509 56 171 0.0 3.0 0.01 0.51 0.50 88 1009.1
20260903210008 56 167 1.0 4.0 0.01 0.51 0.50 89 1009.1
20260903205508 56 165 1.0 4.0 0.01 0.51 0.50 87 1009.2
20260903205008 56 170 1.0 2.0 0.01 0.51 0.50 86 1009.2
20260903204508 56 174 0.0 2.0 0.01 0.51 0.50 87 1009.2
20260903204013 56 174 0.0 4.0 0.01 0.51 0.50 89 1009.4
20260903204009 56 174 0.0 4.0 0.01 0.51 0.50 88 1009.2
20260903203507 56 165 2.0 6.0 0.02 0.51 0.50 86 1009.4
20260903203110 56 186 1.0 6.0 0.01 0.51 0.50 90 1009.4
20260903202619 56 188 2.0 6.0 0.02 0.51 0.50 87 1009.3
20260903201506 57 171 1.0 5.0 0.01 0.50 0.49 88 1009.3
20260903201007 57 76 0.0 4.0 0.02 0.50 0.49 89 1009.3
20260903200512 57 148 0.0 2.0 0.03 0.50 0.49 91 1009.4
20260903200506 57 148 0.0 2.0 0.02 0.50 0.49 90 1009.4
20260903195506 57 55 0.0 5.0 0.03 0.50 0.49 92 1009.4
20260903195006 57 175 1.0 5.0 0.04 0.51 0.49 92 1009.3
20260903194508 57 179 1.0 4.0 0.04 0.51 0.49 93 1009.4
20260903194011 56 163 0.0 4.0 0.05 0.51 0.49 92 1009.3
20260903194006 57 187 1.0 4.0 0.04 0.51 0.49 93 1009.3
20260903193005 56 165 0.0 3.0 0.06 0.51 0.49 92 1009.3
20260903192504 56 163 0.0 3.0 0.06 0.50 0.49 92 1009.4
20260903192010 56 171 1.0 4.0 0.07 0.50 0.48 93 1009.5
20260903192004 56 162 0.0 3.0 0.08 0.51 0.48 92 1009.4
20260903191005 56 165 1.0 4.0 0.07 0.50 0.47 93 1009.5
20260903190504 56 169 2.0 4.0 0.07 0.50 0.47 92 1009.6
20260903190004 56 164 1.0 5.0 0.06 0.49 0.46 92 1009.5
20260903185505 56 170 0.0 5.0 0.06 0.50 0.46 92 1009.5
20260903185004 56 167 0.0 4.0 0.05 0.49 0.45 93 1009.4
20260903184502 56 172 1.0 4.0 0.05 0.49 0.45 92 1009.5
20260903184002 56 167 1.0 5.0 0.05 0.50 0.45 92 1009.6
20260903183502 57 161 2.0 5.0 0.04 0.49 0.44 92 1009.5
20260903183008 57 179 1.0 4.0 0.02 0.48 0.42 92 1009.3
20260903183002 57 171 2.0 5.0 0.03 0.49 0.43 92 1009.4
20260903182002 57 190 1.0 5.0 0.01 0.46 0.41 91 1009.3
20260903181503 57 163 1.0 6.0 0.01 0.47 0.40 91 1009.3
20260903181003 57 172 1.0 6.0 0.01 0.47 0.40 91 1009.2
20260903180501 57 115 1.0 5.0 0.01 0.47 0.40 91 1009.2
20260903180002 57 206 1.0 5.0 0.01 0.48 0.40 91 1009.2
20260903175501 57 176 1.0 5.0 0.01 0.49 0.40 91 1009.2
20260903175001 57 198 1.0 6.0 0.01 0.50 0.40 91 1009.2
20260903174500 57 189 1.0 6.0 0.01 0.51 0.40 90 1009.1
20260903174004 57 167 1.0 6.0 0.01 0.53 0.40 92 1009.2
20260903174000 57 163 1.0 6.0 0.01 0.52 0.40 91 1009.2
20260903173613 57 177 2.0 9.0 0.01 0.53 0.40 91 1009.1
20260903172959 57 147 2.0 9.0 0.01 0.53 0.40 92 1009.1
20260903172000 57 227 3.0 8.0 0.00 0.52 0.40 90 1009.1
20260903171500 57 171 3.0 9.0 0.00 0.52 0.39 90 1009.1
20260903171005 58 99 3.0 12.0 0.01 0.52 0.39 91 1009.1
20260903171001 57 178 3.0 9.0 0.00 0.52 0.39 90 1009.1
20260903170613 58 211 2.0 12.0 0.01 0.52 0.39 92 1009.0
20260903165500 57 184 2.0 7.0 0.01 0.53 0.39 93 1009.0
20260903165000 57 163 2.0 7.0 0.02 0.53 0.39 92 1009.0
20260903164457 57 177 2.0 7.0 0.02 0.53 0.39 92 1009.1
20260903163959 57 156 2.0 7.0 0.04 0.54 0.39 92 1009.1
20260903163503 57 170 1.0 7.0 0.04 0.54 0.39 93 1009.1
20260903163458 57 184 2.0 7.0 0.04 0.54 0.39 93 1009.2
20260903163111 56 169 0.0 3.0 0.06 0.55 0.39 94 1009.3
20260903162459 56 173 1.0 5.0 0.05 0.54 0.39 93 1009.2
20260903161501 56 177 1.0 4.0 0.06 0.55 0.39 93 1009.4
20260903161456 56 69 1.0 4.0 0.06 0.55 0.39 94 1009.3
20260903161109 55 189 1.0 3.0 0.06 0.54 0.38 93 1009.5
20260903160456 55 175 1.0 3.0 0.06 0.54 0.38 93 1009.4
20260903160109 55 157 1.0 2.0 0.08 0.55 0.38 93 1009.5
20260903154954 55 131 0.0 2.0 0.09 0.54 0.38 93 1009.5
20260903154455 55 243 0.0 2.0 0.11 0.54 0.37 93 1009.5
20260903154000 55 21 0.0 2.0 0.10 0.52 0.35 94 1009.7
20260903153955 55 190 0.0 2.0 0.10 0.52 0.35 94 1009.7
20260903152951 55 21 0.0 2.0 0.10 0.52 0.35 93 1009.6
20260903152452 55 165 0.0 2.0 0.10 0.51 0.34 93 1009.6